Regional Weather Roundup
Issued by NWS State College, PA

Home | Current Version | Previous Version | Text Only | Print | Product List | Glossary On
Versions: 1 2 3 4 5 6 7 8 9 10 11 12 13 14 15 16 17 18 19 20 21 22 23 24 25 26 27 28 29 30 31 32 33 34 35 36 37 38 39 40 41 42 43 44 45 46 47 48 49 50
000
ASUS41 KCTP 251210
RWRCTP

REGIONAL WEATHER ROUNDUP
NATIONAL WEATHER SERVICE STATE COLLEGE PA
800 AM EDT SAT MAR 25 2017

Note: "fair" indicates few or no clouds below 12,000 feet with no
significant weather and/or obstructions to visibility.

* = STATION THAT DOES NOT REPORT PRECIPITATION /E.G. RAIN...SNOW...ETC/
    THUNDER OR FOG.

PAZ002>004-007>009-013>016-020>023-029>032-251300-
WESTERN PENNSYLVANIA

CITY           SKY/WX    TMP DP  RH WIND       PRES   REMARKS
ERIE           CLOUDY    39  37  92 NE13      30.13R FOG
MEADVILLE      MOCLDY    59  50  72 SW6       30.11R
FRANKLIN*      MOCLDY    57  48  72 SW7       30.13R
NEW CASTLE     PTSUNNY   60  52  74 SW5       30.14R
BEAVER COUNTY  NOT AVBL
BUTLER*        MOCLDY    61  48  63 SW7       30.16R
PITTSBURGH INT CLOUDY    62  50  64 SW7       30.14R
PITTSBURGH     CLOUDY    62  47  57 SW12      30.15R
INDIANA*       CLEAR     57  52  82 W6        30.18R
LATROBE        MOCLDY    59  48  67 SW7       30.17R
WASHINGTON CO* CLOUDY    61  48  63 SW7       30.18S
$$

PAZ004>006-010>012-017>019-024>028-033>037-041-042-045-046-049>053-251300-
CENTRAL PENNSYLVANIA

CITY           SKY/WX    TMP DP  RH WIND       PRES   REMARKS
BRADFORD       MOCLDY    58  51  78 SW5       30.11R
DUBOIS         CLOUDY    57  49  74 SW8       30.12S
CLEARFIELD       N/A    N/A N/A N/A MISG      30.13R
JOHNSTOWN      CLOUDY    59  49  69 W15G21    30.16R
ALTOONA        CLOUDY    62  51  67 SW7       30.16R
STATE COLLEGE  MOCLDY    63  52  67 W8        30.12R
WILLIAMSPORT   CLOUDY    41  36  82 CALM      30.13R
SELINSGROVE    CLOUDY    43  40  89 CALM      30.14R
FT INDIANTOWN  CLOUDY    43  43 100 CALM      30.14R
CAPITAL CITY   CLOUDY    48  41  76 CALM      30.14R
HARRISBURG     CLOUDY    46  42  86 CALM      30.14R
YORK           CLOUDY    50  45  83 CALM      30.14R
$$

PAZ038>040-043-044-047-048-054-055-060>062-067>071-251300-
EASTERN PENNSYLVANIA

CITY           SKY/WX    TMP DP  RH WIND       PRES   REMARKS
SCRANTON       CLOUDY    43  38  82 N3        30.13R
MOUNT POCONO   CLOUDY    50  46  86 W7        30.10R
ALLENTOWN      PTSUNNY   46  37  71 SW3       30.12R
QUAKERTOWN*    CLOUDY    45  39  81 CALM      30.14R
READING        CLOUDY    45  39  79 CALM      30.14R
LANCASTER      CLOUDY    46  40  79 CALM      30.14R
COATESVILLE    CLOUDY    55  46  71 VRB7      30.16R
POTTSTOWN      CLOUDY    45  38  76 CALM      30.15R
BLUE BELL      CLOUDY    52  43  71 CALM      30.13S
DOYLESTOWN     MOSUNNY  N/A N/A N/A SW5       30.13R
WILLOW GROVE   NOT AVBL
NORTH PHILA    CLOUDY    54  44  69 SW5       30.16R
PHILADELPHIA   CLOUDY    53  46  77 SW9       30.16R
$$




USA.gov is the U.S. government's official web portal to all federal, state and local government web resources and services.